Location: *
(36.9864°N, 120.6319°W)
Time: 20:50:35
(UTC+00:00)

Daily predictions for brighter satellites

Satellite Brightness Start Highest point End
(mag) Time Altitude Azimuth Time Altitude Azimuth Time Altitude Azimuth
CZ-3B R/B 4.5 12:05:23 12° SSE 12:05:23 12° SSE 12:06:21 10° SE
In-Cosmos 22 Rocket 4.5 12:13:03 10° S 12:18:19 62° E 12:23:43 10° NNE
BREEZE-M DEB (TANK) 4.5 12:27:53 26° ENE 12:27:53 26° ENE 12:30:55 10° E
Meteor 2-20 4.4 12:25:51 15° N 12:31:08 88° E 12:37:16 10° S
Cosmos 2100 Rocket 4.0 12:30:01 10° S 12:36:11 76° E 12:42:21 10° N
Cosmos 1447 Rocket 4.4 12:37:47 27° NNW 12:41:25 66° W 12:47:38 10° S
BREEZE-M DEB (TANK) 4.3 12:52:19 22° NNE 12:52:19 22° NNE 12:54:06 10° ENE
COSMOS 2487 2.7 12:52:02 65° ESE 12:52:07 65° ESE 12:55:33 10° NNE
Lacrosse 5 4.2 12:55:56 10° N 12:55:56 10° N 12:56:16 10° N
Cosmos 1802 Rocket 4.1 12:48:55 10° S 12:55:20 82° E 13:01:46 10° N
Cosmos 2360 Rocket 3.9 12:50:39 10° N 12:55:37 30° ENE 13:00:33 10° ESE
ALOS 3.8 12:53:10 10° NNE 12:57:30 37° E 13:01:48 10° SSE
ATLAS 2AS CENTAUR R/B 3.2 12:51:05 14° NNW 12:57:35 64° NE 13:04:26 10° SE
ATLAS CENTAUR R/B 1.7 12:57:14 51° WSW 12:58:08 61° WNW 13:02:56 10° NNE
Cosmos 2150 Rocket 4.0 12:52:41 10° SSW 12:58:08 88° ESE 13:03:36 10° NNE
SL-16 R/B 2.2 12:55:50 17° NNW 13:00:18 79° ENE 13:05:58 10° SSE
Cosmos 1151 Rocket 3.9 12:56:30 10° N 13:00:45 50° E 13:04:58 10° SSE
Cosmos 1980 Rocket 3.4 13:03:01 24° SW 13:03:01 24° SW 13:06:06 10° SSW
CZ-3B R/B 3.2 12:57:37 16° SW 13:01:38 26° S 13:05:27 10° SE
Okean O Rocket 3.5 12:58:51 10° NE 13:02:45 32° E 13:06:38 10° SSE
Abrixas rocket 4.1 13:05:29 19° NNE 13:05:29 19° NNE 13:06:45 10° NE
Cosmos 2173 Rocket 3.9 13:00:10 10° SSW 13:06:22 66° W 13:12:32 10° N
H-2A R/B 3.1 13:05:34 12° S 13:06:42 15° SSE 13:09:07 10° ESE
Cosmos 2322 Rocket 2.3 13:02:28 13° NNW 13:07:39 78° ENE 13:13:19 10° SSE
STARLINK-81 4.4 13:08:28 33° NNW 13:08:28 33° NNW 13:11:58 10° NNE
SKYMED 2 4.1 13:05:24 10° SSE 13:09:40 60° ENE 13:13:57 10° N
Cosmos 1328 Rocket 3.7 13:05:30 10° N 13:09:49 72° E 13:14:06 10° SSE
Cosmos 158 Rocket 4.3 13:10:16 37° W 13:10:28 37° W 13:14:54 10° SSW
STARLINK-77 4.5 13:11:39 32° NNW 13:11:39 32° NNW 13:15:15 10° NNE
Cosmos 372 Rocket 3.8 13:06:54 10° SSW 13:12:02 70° WNW 13:17:10 10° NNE
Cosmos 1825 2.3 13:08:22 10° S 13:12:06 74° E 13:15:52 10° N
CZ-2C R/B 3.4 13:08:13 10° N 13:11:00 27° NW 13:11:00 27° NW
Cosmos 2061 Rocket 3.9 13:07:23 10° S 13:13:39 81° W 13:19:53 10° N
ASTEX 1 4.0 13:14:21 10° SSW 13:18:48 33° W 13:20:42 25° NW
Shenzhou-11 Module 1.4 13:20:45 76° WNW 13:20:56 90° SSE 13:23:37 10° ESE
Cosmos 1437 2.8 13:18:03 10° S 13:21:03 71° E 13:24:06 10° NNE
Cosmos 1484 Rocket 2.8 13:17:58 10° N 13:21:57 61° WNW 13:25:53 10° SSW
Cosmos 1864 Rocket 4.4 13:18:46 10° S 13:24:54 87° W 13:31:06 10° N
SL-4 R/B 3.2 13:21:55 19° NNW 13:25:09 46° NE 13:29:47 10° ESE
Cosmos 2151 3.7 13:21:30 10° SW 13:25:19 31° WNW 13:29:10 10° NNW
METEOR-M 4.3 13:20:28 10° NNE 13:25:50 76° ESE 13:31:10 10° S
OAO 2 Rocket 4.0 13:25:09 23° WSW 13:27:54 42° SSW 13:32:40 10° SE
Cosmos 2346 Rocket 4.5 13:23:41 10° N 13:29:47 83° E 13:35:49 10° S
Cosmos 1408 Rocket 3.6 13:25:44 10° SSW 13:29:54 49° W 13:34:07 10° N
COSMOS 2455 3.0 13:25:56 16° NW 13:30:42 54° WSW 13:36:31 10° S
FENGYUN 3A 3.8 13:25:19 10° NNE 13:30:45 80° ESE 13:36:09 10° S
MOS 1-B 4.3 13:26:15 10° N 13:32:01 69° WNW 13:37:44 10° SSW
OAO 3 Rocket 3.7 13:32:05 21° W 13:35:03 49° SSW 13:39:39 10° ESE
Cosmos 1500 Rocket 3.6 13:32:50 10° S 13:37:18 84° E 13:41:46 10° N
Delta 2 Rocket 3.7 13:34:43 20° WSW 13:37:49 75° S 13:42:51 10° E
Helios 1A Rocket 2.9 13:34:03 10° NNE 13:38:09 86° ESE 13:42:12 10° SSW
Chandra Rocket (1) 4.5 13:25:56 15° W 13:38:33 42° SSW 13:43:40 10° SE
Cosmos 1400 Rocket 3.9 13:36:48 10° N 13:40:43 47° ENE 13:44:33 10° SSE
CZ-4B R/B 3.3 13:38:04 10° NNE 13:43:31 86° E 13:49:04 10° SSW
Cosmos 1048 Rocket 4.1 13:38:30 10° NNW 13:43:54 82° ENE 13:49:12 10° SSE
Cosmos 2219 Rocket 4.2 13:40:47 10° N 13:45:28 26° ENE 13:50:09 10° ESE
Cosmos 1408 3.6 13:43:19 10° SW 13:46:22 24° WNW 13:49:25 10° NNW
Cosmos 2333 Rocket 4.1 13:42:33 10° N 13:47:30 29° ENE 13:52:25 10° ESE
SJ-7 4.5 13:51:42 10° NNE 13:55:52 84° ESE 13:59:55 10° S
COSMO-SKYMED 1 3.2 13:53:41 10° SSW 13:57:40 36° W 14:01:42 10° NNW
Cosmos 1725 Rocket 4.2 13:52:13 10° SSW 13:58:12 47° W 14:04:16 10° N
NOSS 3-4 (A) 4.0 14:01:25 10° NW 14:08:33 63° WSW 14:16:18 10° SSE
NOSS 3-4 (C) 4.0 14:01:31 10° NW 14:08:40 64° WSW 14:16:24 10° SSE
Cosmos 1633 4.2 14:07:15 10° SSE 14:10:38 39° E 14:14:03 10° NNE
USA 116 4.1 14:09:24 10° SSW 14:12:18 31° W 14:15:26 10° NNW
Meteor 1-26 Rocket 4.2 14:08:18 10° NNW 14:13:56 71° W 14:19:23 10° S
Okean-O 4.4 14:14:05 10° NNE 14:18:14 39° E 14:22:22 10° SSE
